星链-32679 (STARLINK-32679)

导读

STARLINK-32679是美国于2025年1月6日发射的星链卫星,星链是美国太空探索技术公司(SpaceX)打造的低轨卫星互联网星座项目,旨在为全球提供高速低延迟互联网服务,该卫星的发射进一步扩充了星链星座的卫星规模,推进了全球卫星互联网组网进程。

基本信息
目录编号:
62507
目录名称:
STARLINK-32679
国际标识:
2025-003W
轨道中心:
EARTH
卫星名称:
星链-32679
卫星全名:
星链-32679 (STARLINK-32679)
卫星状态:
在轨 (已飞行613 天)
发射日期:
2025-01-06 UTC
国别 :
美国 (US)
星等 :
--
该卫星已列入 空间交会检测服务 Space Conjunction Data Service (SCDS) ,当前飞行风险评估等级: 高风险
轨道信息
数据来源 国际轨道数据 AOE轨道数据
星历时间 2026-09-11T13:38:46+0800
11小时前
查看轨道信息
2026-09-10T07:00:00+0800
1天前
查看轨道信息
半长轴 6861.152km 6861.201km
偏心率 0.000141 0.0001666
轨道倾角 43.000° 43.002°
近地点辐角 263.146° 244.520°
升交点赤经 321.471° 328.687°
平近点角 96.924° 285.156°
近地点 482.047km 481.92km
远地点 483.983km 484.208km
周期 94.266分钟 94.267分钟
每日圈数 15.275914 15.275752
详细信息
固有亮度:
5
最大亮度:
2.5
卫星平台:
Starlink V1.0
覆盖范围:
全球
运营商:
太空探索技术公司
运营商所在国:
美国
制造商(研发单位):
太空探索技术公司
制造商所在国:
美国
使用方式:
暂无
卫星简介
Starlink 计划是 SpaceX 推出的全球卫星互联网项目,通过发射低轨道卫星,为全球尤其是偏远地区提供高速、低延迟的互联网服务。自 2019 年起,Starlink 已部署数千颗卫星,旨在缩小全球数字鸿沟,推动互联网普及。该项目还为军事、航空等行业提供通信支持,带来广泛经济效益。
2D轨道图
3D轨道图
轨道高度分析图
轨道倾角分析图
轨道综合分析图
查看轨道综合分析图
交会数据列表
事件ID 空间交会对象 最接近时刻(TCA) 交会距离 交会风险概率(CRP) 交会风险指数(CRI) 操作
CDM_260911-134206-250706-793821
2026-09-11T
13:42:22+0000
0.501 km
远距离
1.403331E-4 高风险 0.78
CDM_260912-035506-250706-790521
2026-09-12T
03:55:54+0000
0.559 km
远距离
6.856968E-5 中风险 0.72
CDM_260911-141006-250706-383921
2026-09-11T
14:10:54+0000
0.703 km
远距离
6.505208E-5 中风险 0.71
CDM_260911-130406-250706-644821
2026-09-11T
13:04:25+0000
0.539 km
远距离
4.202722E-5 中风险 0.67
CDM_260913-143406-250706-731021
2026-09-13T
14:34:37+0000
0.692 km
远距离
3.232448E-5 中风险 0.65
CDM_260911-202405-969906-250721
2026-09-11T
20:24:33+0000
1.019 km
极远距离
1.85004E-5 中风险 0.6
CDM_260911-135106-250706-644821
2026-09-11T
13:51:29+0000
0.740 km
远距离
1.552572E-5 中风险 0.59
CDM_260911-224806-250706-383921
2026-09-11T
22:48:43+0000
1.147 km
极远距离
1.280152E-5 中风险 0.57
CDM_260912-221706-250706-661221
2026-09-12T
22:17:19+0000
1.143 km
极远距离
1.231277E-5 中风险 0.57
CDM_260913-082705-601706-250721
2026-09-13T
08:27:31+0000
1.381 km
极远距离
6.19692E-6 低风险 0.51
与全量物体交会距离演化趋势
与全量物体交会风险概率演化趋势